Flag for Luxembourg Weather past 2 weeks in Esch-sur-Alzette, Luxembourg

50 °F

Passing clouds.

Feels Like: 43 °F
Forecast: 46 / 50 °F
Wind: 24 mph from Southwest

Location: Luxembourg Airport

Current Time: Nov 30, 2015 at 8:01:39 PM

Latest Report: Nov 30, 2015 at 7:20 PM

Visibility: N/A

Pressure: 30.09 "Hg

Humidity: 82%

Dew point: 45 °F

Location of Esch-sur-AlzetteLocation

Historic Weather in Esch-sur-Alzette — Graph


Esch-sur-Alzette temperature yesterday

Maximum temperature yesterday: 48 °F (at 2:20 PM)
Minimum temperature yesterday: 37 °F (at 12:50 AM)
Average temperature yesterday: 45 °F

Past Weeks' High & Low Weather Summary

High57 °F (Nov 17, 9:50 PM)100% (Nov 15, 11:50 PM)30.27 "Hg (Nov 15, 11:50 PM)
Low27 °F (Nov 24, 8:50 AM)65% (Nov 23, 1:20 PM)29.42 "Hg (Nov 21, 9:20 AM)
Average41 °F92%29.94 "Hg
* Reported Nov 15 6:20 PM — Nov 30 6:50 PM, Esch-sur-Alzette, Weather by CustomWeather, © 2015

Note: Actual official high and low records may vary slightly from our data, if they occured in-between our weather recording intervals... More about our weather records


Esch-sur-Alzette weather history for previous 24 hours

Time TempWeatherWind HumidityBarometerVisibility
6:50 PM
Mon, Nov 30
48 °FPartly cloudy.23 mph87%30.09 "HgN/A
6:20 PM48 °FPassing clouds.24 mph87%30.09 "HgN/A
5:50 PM48 °FLight rain. Partly cloudy.23 mph87%30.09 "Hg3 mi
5:20 PM48 °FLight rain. Passing clouds.21 mph87%30.12 "Hg6 mi
4:50 PM48 °FPartly cloudy.25 mph87%30.09 "HgN/A
4:20 PM50 °FBroken clouds.23 mph82%30.09 "HgN/A
3:50 PM48 °FPartly sunny.23 mph87%30.09 "HgN/A
3:20 PM50 °FPartly sunny.22 mph82%30.12 "HgN/A
2:50 PM50 °FBroken clouds.21 mph82%30.12 "HgN/A
2:20 PM48 °FSprinkles. Partly sunny.21 mph87%30.12 "HgN/A
1:50 PM48 °FPartly sunny.22 mph87%30.12 "HgN/A
1:20 PM48 °FPartly sunny.21 mph87%30.15 "HgN/A
12:50 PM46 °FDrizzle. Partly sunny.22 mph100%30.15 "Hg5 mi
12:20 PM46 °FDrizzle. Partly sunny.22 mph93%30.15 "HgN/A
11:50 AM46 °FDrizzle. Fog.21 mph100%30.18 "Hg2 mi
11:20 AM46 °FDrizzle. Fog.20 mph100%30.18 "Hg2 mi
10:50 AM46 °FDrizzle. Broken clouds.18 mph100%30.18 "Hg2 mi
10:20 AM46 °FDrizzle. Broken clouds.20 mph100%30.18 "Hg4 mi
9:50 AM46 °FDrizzle. Broken clouds.16 mph100%30.18 "Hg3 mi
9:20 AM46 °FDrizzle. Partly sunny.14 mph100%30.18 "Hg2 mi
8:50 AM46 °FDrizzle. Partly sunny.14 mph93%30.18 "Hg3 mi
8:20 AM46 °FDrizzle. Partly sunny.15 mph93%30.18 "Hg4 mi
7:50 AM46 °FPassing clouds.17 mph93%30.18 "Hg4 mi
7:20 AM46 °FPassing clouds.17 mph93%30.18 "Hg5 mi
6:50 AM46 °FPartly cloudy.20 mph93%30.15 "Hg4 mi
6:20 AM46 °FPartly cloudy.17 mph93%30.15 "Hg4 mi
5:50 AM46 °FPartly cloudy.18 mph93%30.12 "Hg4 mi
5:20 AM46 °FPassing clouds.17 mph93%30.12 "Hg4 mi
4:20 AM46 °FPartly cloudy.20 mph100%30.09 "Hg2 mi
3:50 AM46 °FPassing clouds.21 mph93%30.09 "Hg2 mi
3:20 AM46 °FDrizzle. Mostly cloudy.21 mph93%30.09 "Hg3 mi
2:50 AM46 °FDrizzle. Fog.23 mph93%30.09 "Hg2 mi
1:50 AM46 °FSprinkles. Mostly cloudy.25 mph93%30.07 "Hg4 mi
1:20 AM46 °FPartly cloudy.25 mph93%30.07 "Hg4 mi
12:50 AM46 °FDrizzle. Mostly cloudy.25 mph93%30.07 "Hg3 mi
12:20 AM46 °FPassing clouds.25 mph93%30.07 "Hg4 mi
11:50 PM
Sun, Nov 29
48 °FPartly cloudy.32 mph82%30.07 "Hg5 mi
11:20 PM48 °FPassing clouds.28 mph82%30.07 "HgN/A
10:50 PM48 °FLight rain. Partly cloudy.30 mph82%30.07 "HgN/A
10:20 PM48 °FLight rain. Passing clouds.26 mph82%30.07 "Hg5 mi
9:50 PM48 °FPassing clouds.25 mph82%30.07 "Hg5 mi
9:20 PM48 °FPartly cloudy.22 mph87%30.04 "Hg4 mi
8:50 PM48 °FLight rain. Partly cloudy.23 mph87%30.04 "Hg4 mi
8:20 PM48 °FLight rain. Partly cloudy.25 mph87%30.04 "Hg4 mi
Weather by CustomWeather, © 2015

See weather overviewHow to use our weather pages